Flag for Honduras Weather past 2 weeks in Tegucigalpa, Honduras

Now
75 °F

Passing clouds.


Feels Like: 77 °F
Forecast: 68 / 82 °F
Wind: 5 mph from Northeast

Location: Tegucigalpa Airport

Current Time: Jun 30, 2015 at 9:20:23 AM

Latest Report: Jun 30, 2015 at 9:00 AM


Visibility: N/A

Pressure: 30.15 "Hg

Humidity: 65%

Dew point: 63 °F

Location of TegucigalpaLocation

Historic Weather in Tegucigalpa — Graph

°F

Tegucigalpa temperature yesterday

Maximum temperature yesterday: 82 °F (at 12:00 PM)
Minimum temperature yesterday: 68 °F (at 5:00 AM)
Average temperature yesterday: 75 °F

Past Weeks' High & Low Weather Summary

 TemperatureHumidityPressure
High84 °F (Jun 22, 2:00 PM)100% (Jun 16, 2:00 PM)30.15 "Hg (Jun 16, 2:00 PM)
Low64 °F (Jun 22, 6:00 AM)39% (Jun 27, 10:00 AM)29.98 "Hg (Jun 15, 3:00 PM)
Average74 °F75%30.09 "Hg
* Reported Jun 15 8:00 AM — Jun 30 8:00 AM, Tegucigalpa, Weather by CustomWeather, © 2015

Note: Actual official high and low records may vary slightly from our data, if they occured in-between our weather recording intervals... More about our weather records

Advertising

Tegucigalpa weather history for previous 24 hours

 ConditionsComfort  
Time TempWeatherWind HumidityBarometerVisibility
8:00 AM
Tue, Jun 30
73 °FScattered clouds.9 mph74%30.15 "HgN/A
7:00 AM70 °FPartly sunny.6 mph94%30.15 "HgN/A
6:00 AM70 °FPartly sunny.No wind94%30.12 "HgN/A
5:00 AM70 °FPartly cloudy.No wind94%30.12 "HgN/A
4:00 AM70 °FScattered showers. Partly cloudy.3 mph94%30.12 "Hg5 mi
3:00 AM70 °FPassing clouds.3 mph94%30.12 "Hg5 mi
1:00 AM72 °FPassing clouds.3 mph83%30.09 "HgN/A
12:00 AM72 °FPassing clouds.7 mph88%30.12 "HgN/A
11:00 PM
Mon, Jun 29
73 °FPartly cloudy.6 mph78%30.12 "HgN/A
10:00 PM73 °FPassing clouds.6 mph78%30.12 "HgN/A
9:00 PM75 °FPartly cloudy.6 mph74%30.15 "HgN/A
8:00 PM75 °FPassing clouds.No wind74%30.12 "HgN/A
7:00 PM77 °FPassing clouds.5 mph65%30.09 "HgN/A
6:00 PM79 °FPartly sunny.7 mph61%30.07 "HgN/A
5:00 PM81 °FScattered clouds.5 mph62%30.07 "HgN/A
4:00 PM81 °FPartly sunny.5 mph58%30.04 "HgN/A
3:00 PM82 °FBroken clouds.5 mph58%30.07 "HgN/A
2:00 PM82 °FPartly sunny.9 mph58%30.09 "HgN/A
1:00 PM81 °FScattered showers. Partly sunny.12 mph58%30.09 "Hg5 mi
12:00 PM82 °FBroken clouds.9 mph55%30.12 "HgN/A
11:00 AM81 °FPartly sunny.12 mph62%30.15 "HgN/A
10:00 AM79 °FBroken clouds.7 mph74%30.15 "HgN/A
9:00 AM72 °FScattered showers. Partly sunny.7 mph88%30.15 "Hg5 mi
Weather by CustomWeather, © 2015

See weather overviewHow to use our weather pages